Weather Roundup
Issued by NWS

Home | Current Version | Previous Version | Text Only | Print | Product List | Glossary On
Versions: 1 2 3 4 5 6 7 8 9 10 11 12 13 14 15 16 17 18 19 20 21 22 23 24 25 26 27 28 29 30 31 32 33 34 35 36 37 38 39 40 41 42 43 44 45 46 47 48 49 50
000
NZUS93 KARX 030410
HRRWXR

CURRENT HOURLY OBSERVATIONS ACROSS
MUCH OF THE UPPER MISSISSIPPI VALLEY
NATIONAL WEATHER SERVICE LA CROSSE WI
1100 PM CDT TUE SEP 02 2014


...SOUTHEAST MINNESOTA...


CITY           SKY/WX    TMP DP  RH WIND       PRES   REMARKS
ROCHESTER      CLEAR     60  56  86 S6        29.94R
ROCHESTER/MAYO FAIR      66  55  69 SW5       29.92S
WINONA         CLEAR     61  59  94 CALM      29.92R
AUSTIN         PTCLDY    61  57  88 CALM      29.93S
ALBERT LEA     PTCLDY    64  61  88 SW3       29.93R
DODGE CENTER   CLEAR     63  57  82 SW5       29.93R
PRESTON        CLEAR     60  60  99 CALM      29.94S
OWATONNA       CLEAR     64  57  77 S6        29.91S
FARIBAULT      CLEAR     63  55  77 CALM      29.91S
$$

...ELSEWHERE IN MINNESOTA...


CITY           SKY/WX    TMP DP  RH WIND       PRES   REMARKS
MINNEAPOLIS    PTCLDY    68  58  70 SW7       29.87S
INTNL FALLS    CLOUDY    56  54  93 S3        29.74S
DULUTH         PTCLDY    59  52  77 S7        29.82S
RED WING       CLEAR     59  57  94 CALM      29.88S
REDWOOD FALLS  PTCLDY    62  58  86 S8        29.88R
MANKATO        PTCLDY    64  54  68 S6        29.90S
WORTHINGTON    PTCLDY    61  57  88 S6        29.93S
FAIRMONT       MOCLDY    61  54  77 S6        29.92S
$$

...SOUTHWEST WISCONSIN...


CITY           SKY/WX    TMP DP  RH WIND       PRES   REMARKS
LA CROSSE      CLEAR     64  60  87 S7        29.91R
PRAIRIE DU CHI CLEAR     61  58  91 CALM      29.94R
BOSCOBEL       CLEAR     61  59  93 CALM      29.95R
LONE ROCK      CLEAR     62  57  83 E5        29.94R
PLATTEVILLE    CLEAR     64  58  81 CALM      29.97S
FORT MC COY    CLEAR     58  56  96 CALM      29.93R
CAMP DOUGLAS   CLEAR     59  59 100 SE1       29.93R
VIROQUA        FAIR      62  58  87 SW3       29.95R
WIS DELLS      CLEAR     62  56  82 CALM      29.94R
$$

...ELSEWHERE IN WISCONSIN...


CITY           SKY/WX    TMP DP  RH WIND       PRES   REMARKS
MILWAUKEE      CLEAR     68  59  73 CALM      29.94R
MADISON        CLEAR     62  59  90 CALM      29.94R
GREEN BAY      CLEAR     59  57  93 CALM      29.91R
EAU CLAIRE     CLEAR     60  58  92 S3        29.89R
BLACK RVR FLS  FAIR      55  55 100 CALM      29.91R
MEDFORD        CLEAR     53  53  97 S3        29.91S
WAUSAU         CLEAR     58  56  93 E3        29.90R
WIS RAPIDS     CLEAR     57  56  96 CALM      29.92R
MARSHFIELD     CLEAR     58  56  93 CALM      29.91S
RICE LAKE      CLEAR     58  55  91 CALM      29.89S
$$

...NORTHEAST IOWA...


CITY           SKY/WX    TMP DP  RH WIND       PRES   REMARKS
WATERLOO       CLEAR     64  59  83 CALM      29.95R
DUBUQUE        CLEAR     60  58  92 CALM      29.97R
DECORAH        CLEAR     64  59  82 S3        29.94S
MASON CITY     CLEAR     59  58  96 S5        29.96R
CHARLES CITY   CLEAR     61  59  94 S7        29.96R
OELWEIN        CLEAR     59  59 100 S7        29.97R
$$

...ELSEWHERE IN IOWA...


CITY           SKY/WX    TMP DP  RH WIND       PRES   REMARKS
DES MOINES     CLEAR     67  61  81 S6        29.96R
IOWA CITY      CLEAR     64  61  90 CALM      29.98R
FORT DODGE     PTCLDY    61  57  88 CALM      29.96S
MARSHALLTOWN   CLEAR     63  59  87 CALM      29.96S
CEDAR RAPIDS   CLEAR     60  60 100 CALM      29.97R
$$

...NORTHERN ILLINOIS...


CITY           SKY/WX    TMP DP  RH WIND       PRES   REMARKS
CHICAGO-OHARE  PTCLDY    70  59  68 W3        29.96R
DUPAGE         CLEAR     65  62  90 CALM      29.96R
CHICAGO-MIDWAY PTCLDY    73  60  63 SW6       29.95R
MOLINE         CLEAR     64  61  90 CALM      29.98R
ROCKFORD       CLEAR     63  59  87 S3        29.98R
STERLING       CLEAR     61  57  88 CALM      29.98R
PEORIA         PTCLDY    69  64  84 CALM      29.99R
$$

NOTE: "FAIR" INDICATES FEW OR NO CLOUDS BELOW 12,000 FEET WITH NO
SIGNIFICANT WEATHER AND/OR OBSTRUCTIONS TO VISIBILITY. WIND
SPEEDS ARE IN MILES-PER-HOUR.



USA.gov is the U.S. government's official web portal to all federal, state and local government web resources and services.